Location: Silverdale
(47.6506°N, 122.6941°W)
Time: 04:42:54
(UTC+00:00)

Altair - Pass Details

Date: 04 October 2022
Orbit: 1501 x 1682 km, 47.2° (Epoch: 05 December)

Event Time Altitude Azimuth Distance (km) Brightness Sun altitude
Rises 18:08:40 0° 288° (WNW) 4,886 9.7 32.4°
Reaches altitude 10° 18:11:50 10° 285° (WNW) 3,914 9.3 32.7°
Maximum altitude 18:21:38 59° 210° (SSW) 1,891 8.8 33.5°
Drops below altitude 10° 18:31:30 10° 134° (SE) 3,932 10.9 34.3°
Sets 18:34:42 0° 131° (SE) 4,909 11.0 34.6°
